TimeMDT,TemperatureF,Dew PointF,Humidity,Sea Level PressureIn,VisibilityMPH,Wind Direction,Wind SpeedMPH,Gust SpeedMPH,PrecipitationIn,Events,Conditions,WindDirDegrees,DateUTC
12:53 AM,70.0,14.0,12,29.72,10.0,WNW,17.3,24.2,N/A,,Clear,290,2013-09-30 06:53:00
1:53 AM,64.9,17.1,16,29.75,10.0,NW,10.4,-,N/A,,Clear,310,2013-09-30 07:53:00
2:53 AM,66.0,18.0,16,29.73,10.0,NW,15.0,-,N/A,,Clear,310,2013-09-30 08:53:00
3:53 AM,64.9,19.0,17,29.74,10.0,WNW,9.2,-,N/A,,Clear,300,2013-09-30 09:53:00
4:53 AM,63.0,21.0,20,29.74,10.0,Variable,3.5,-,N/A,,Clear,0,2013-09-30 10:53:00
5:53 AM,62.1,25.0,24,29.75,10.0,WNW,9.2,-,N/A,,Clear,290,2013-09-30 11:53:00
6:53 AM,57.0,24.1,28,29.78,10.0,North,5.8,-,N/A,,Clear,360,2013-09-30 12:53:00
7:53 AM,57.9,28.9,33,29.79,10.0,Calm,Calm,-,N/A,,Clear,0,2013-09-30 13:53:00
8:53 AM,64.0,28.0,26,29.78,10.0,West,5.8,-,N/A,,Clear,270,2013-09-30 14:53:00
9:53 AM,-9999,-9999,N/A,29.94,10.0,West,4.6,-,N/A,,Clear,270,2013-09-30 15:53:00
10:53 AM,73.9,28.9,19,29.77,10.0,SW,4.6,-,N/A,,Clear,230,2013-09-30 16:53:00
11:53 AM,77.0,25.0,15,29.70,10.0,SSW,4.6,-,N/A,,Clear,200,2013-09-30 17:53:00
12:53 PM,80.1,26.1,14,29.66,10.0,Variable,4.6,-,N/A,,Clear,0,2013-09-30 18:53:00
1:53 PM,82.9,28.9,14,29.64,10.0,Variable,5.8,-,N/A,,Clear,0,2013-09-30 19:53:00
2:53 PM,84.0,28.0,13,29.60,10.0,SE,5.8,-,N/A,,Clear,130,2013-09-30 20:53:00
3:53 PM,84.9,30.9,14,29.59,10.0,SE,8.1,-,N/A,,Clear,130,2013-09-30 21:53:00
4:53 PM,84.9,30.9,14,29.59,10.0,ESE,10.4,-,N/A,,Clear,120,2013-09-30 22:53:00
5:53 PM,84.0,30.9,15,29.59,10.0,East,8.1,-,N/A,,Clear,100,2013-09-30 23:53:00
6:53 PM,79.0,32.0,18,29.62,10.0,Calm,Calm,-,N/A,,Clear,0,2013-10-01 00:53:00
7:53 PM,73.0,30.9,21,29.65,10.0,NNW,4.6,-,N/A,,Clear,330,2013-10-01 01:53:00
8:53 PM,72.0,30.9,22,29.65,10.0,WNW,4.6,-,N/A,,Clear,290,2013-10-01 02:53:00
9:53 PM,68.0,30.9,25,29.83,10.0,West,3.5,-,N/A,,Clear,270,2013-10-01 03:53:00
10:53 PM,72.0,30.9,22,29.65,10.0,WNW,13.8,-,N/A,,Clear,300,2013-10-01 04:53:00
11:53 PM,70.0,28.0,21,29.65,10.0,NNW,4.6,-,N/A,,Clear,330,2013-10-01 05:53:00